Time,TemperatureF,DewpointF,PressureIn,WindDirection,WindDirectionDegrees,WindSpeedMPH,WindSpeedGustMPH,Humidity,HourlyPrecipIn,Conditions,Clouds,dailyrainin,SoftwareType,DateUTC
2013-08-11 00:03:00,59.0,50.0,-100.00,SW,225,0.0,1.0,72,-99.99,,,-99.99,,2013-08-11 07:03:00,
2013-08-11 00:13:00,59.0,50.0,-100.00,West,270,1.0,1.0,72,-99.99,,,-99.99,,2013-08-11 07:13:00,
2013-08-11 00:22:00,59.0,50.0,-100.00,West,270,1.0,1.0,72,-99.99,,,-99.99,,2013-08-11 07:22:00,
2013-08-11 00:44:00,58.0,49.0,-100.00,SW,225,4.0,4.0,73,-99.99,,,-99.99,,2013-08-11 07:44:00,
2013-08-11 01:03:00,57.0,49.0,-100.00,SW,225,4.0,6.0,76,-99.99,,,-99.99,,2013-08-11 08:03:00,
2013-08-11 01:13:00,57.0,49.0,-100.00,SW,225,4.0,6.0,76,-99.99,,,-99.99,,2013-08-11 08:13:00,
2013-08-11 01:23:00,57.0,49.0,-100.00,SW,225,4.0,8.0,75,-99.99,,,-99.99,,2013-08-11 08:23:00,
2013-08-11 01:34:00,57.0,49.0,-100.00,SW,225,8.0,10.0,75,-99.99,,,-99.99,,2013-08-11 08:34:00,
2013-08-11 01:45:00,56.0,48.0,-100.00,SW,225,8.0,11.0,75,-99.99,,,-99.99,,2013-08-11 08:45:00,
2013-08-11 01:57:00,56.0,48.0,-100.00,SW,225,8.0,11.0,75,-99.99,,,-99.99,,2013-08-11 08:57:00,
2013-08-11 02:03:00,55.0,48.0,-100.00,SW,225,9.0,11.0,76,-99.99,,,-99.99,,2013-08-11 09:03:00,
2013-08-11 02:23:00,56.0,48.0,-100.00,SW,225,8.0,13.0,75,-99.99,,,-99.99,,2013-08-11 09:23:00,
2013-08-11 02:34:00,55.0,48.0,-100.00,SW,225,9.0,13.0,76,-99.99,,,-99.99,,2013-08-11 09:34:00,
2013-08-11 03:02:00,54.0,47.0,-100.00,SW,225,9.0,12.0,79,-99.99,,,-99.99,,2013-08-11 10:02:00,
2013-08-11 03:23:00,54.0,48.0,-100.00,SW,225,10.0,13.0,79,-99.99,,,-99.99,,2013-08-11 10:23:00,
2013-08-11 03:33:00,54.0,48.0,-100.00,SW,225,9.0,12.0,79,-99.99,,,-99.99,,2013-08-11 10:33:00,
2013-08-11 03:43:00,54.0,47.0,-100.00,SW,225,9.0,13.0,79,-99.99,,,-99.99,,2013-08-11 10:43:00,
2013-08-11 04:03:00,54.0,47.0,-100.00,SW,225,11.0,14.0,78,-99.99,,,-99.99,,2013-08-11 11:03:00,
2013-08-11 04:12:00,54.0,47.0,-100.00,SW,225,11.0,14.0,78,-99.99,,,-99.99,,2013-08-11 11:12:00,
2013-08-11 04:22:00,54.0,47.0,-100.00,SW,225,9.0,14.0,78,-99.99,,,-99.99,,2013-08-11 11:22:00,
2013-08-11 04:34:00,54.0,47.0,-100.00,SW,225,9.0,12.0,78,-99.99,,,-99.99,,2013-08-11 11:34:00,
2013-08-11 04:57:00,54.0,47.0,-100.00,SW,225,11.0,16.0,78,-99.99,,,-99.99,,2013-08-11 11:57:00,
2013-08-11 05:04:00,54.0,47.0,-100.00,SW,225,10.0,14.0,78,-99.99,,,-99.99,,2013-08-11 12:04:00,
2013-08-11 05:12:00,54.0,47.0,-100.00,SW,225,10.0,12.0,78,-99.99,,,-99.99,,2013-08-11 12:12:00,
2013-08-11 05:24:00,54.0,47.0,-100.00,SW,225,10.0,12.0,78,-99.99,,,-99.99,,2013-08-11 12:24:00,
2013-08-11 05:33:00,54.0,47.0,-100.00,SW,225,10.0,12.0,78,-99.99,,,-99.99,,2013-08-11 12:33:00,
2013-08-11 05:43:00,53.0,47.0,-100.00,SW,225,9.0,13.0,78,-99.99,,,-99.99,,2013-08-11 12:43:00,
2013-08-11 05:55:00,53.0,47.0,-100.00,SW,225,9.0,13.0,78,-99.99,,,-99.99,,2013-08-11 12:55:00,
2013-08-11 06:02:00,53.0,46.0,-100.00,SW,225,11.0,16.0,78,-99.99,,,-99.99,,2013-08-11 13:02:00,
2013-08-11 06:24:00,53.0,46.0,-100.00,SW,225,11.0,16.0,79,-99.99,,,-99.99,,2013-08-11 13:24:00,
2013-08-11 06:44:00,52.0,46.0,-100.00,SW,225,11.0,14.0,80,-99.99,,,-99.99,,2013-08-11 13:44:00,
2013-08-11 06:57:00,52.0,46.0,-100.00,SW,225,11.0,14.0,80,-99.99,,,-99.99,,2013-08-11 13:57:00,
2013-08-11 07:13:00,52.0,46.0,-100.00,SW,225,9.0,14.0,80,-99.99,,,-99.99,,2013-08-11 14:13:00,
2013-08-11 07:23:00,51.0,45.0,-100.00,South,180,10.0,14.0,80,-99.99,,,-99.99,,2013-08-11 14:23:00,
2013-08-11 07:33:00,51.0,45.0,-100.00,South,180,10.0,14.0,80,-99.99,,,-99.99,,2013-08-11 14:33:00,
2013-08-11 07:45:00,52.0,46.0,-100.00,SW,225,10.0,15.0,79,-99.99,,,-99.99,,2013-08-11 14:45:00,
2013-08-11 07:57:00,52.0,46.0,-100.00,SW,225,10.0,15.0,79,-99.99,,,-99.99,,2013-08-11 14:57:00,
2013-08-11 08:02:00,53.0,46.0,-100.00,SW,225,11.0,14.0,78,-99.99,,,-99.99,,2013-08-11 15:02:00,
2013-08-11 08:12:00,53.0,46.0,-100.00,SW,225,11.0,14.0,78,-99.99,,,-99.99,,2013-08-11 15:12:00,
2013-08-11 08:23:00,53.0,46.0,-100.00,SW,225,12.0,16.0,77,-99.99,,,-99.99,,2013-08-11 15:23:00,
2013-08-11 08:34:00,53.0,46.0,-100.00,SW,225,12.0,16.0,77,-99.99,,,-99.99,,2013-08-11 15:34:00,
2013-08-11 08:45:00,54.0,46.0,-100.00,SW,225,10.0,15.0,76,-99.99,,,-99.99,,2013-08-11 15:45:00,
2013-08-11 09:03:00,55.0,47.0,-100.00,SW,225,8.0,12.0,74,-99.99,,,-99.99,,2013-08-11 16:03:00,
2013-08-11 09:23:00,56.0,47.0,-100.00,SW,225,6.0,11.0,73,-99.99,,,-99.99,,2013-08-11 16:23:00,
2013-08-11 09:34:00,56.0,47.0,-100.00,SW,225,6.0,9.0,71,-99.99,,,-99.99,,2013-08-11 16:34:00,
2013-08-11 09:44:00,59.0,48.0,-100.00,SW,225,3.0,7.0,67,-99.99,,,-99.99,,2013-08-11 16:44:00,
2013-08-11 09:56:00,59.0,48.0,-100.00,SW,225,3.0,7.0,67,-99.99,,,-99.99,,2013-08-11 16:56:00,
2013-08-11 10:04:00,62.0,49.0,-100.00,SE,135,4.0,7.0,62,-99.99,,,-99.99,,2013-08-11 17:04:00,
2013-08-11 10:24:00,63.0,48.0,-100.00,South,180,3.0,7.0,59,-99.99,,,-99.99,,2013-08-11 17:24:00,
2013-08-11 10:32:00,64.0,47.0,-100.00,SW,225,5.0,9.0,54,-99.99,,,-99.99,,2013-08-11 17:32:00,
2013-08-11 10:44:00,64.0,47.0,-100.00,SW,225,5.0,9.0,54,-99.99,,,-99.99,,2013-08-11 17:44:00,
2013-08-11 10:56:00,64.0,46.0,-100.00,SW,225,10.0,15.0,52,-99.99,,,-99.99,,2013-08-11 17:56:00,
2013-08-11 11:15:00,67.0,46.0,-100.00,South,180,11.0,14.0,46,-99.99,,,-99.99,,2013-08-11 18:15:00,
2013-08-11 11:22:00,67.0,46.0,-100.00,South,180,11.0,14.0,46,-99.99,,,-99.99,,2013-08-11 18:22:00,
2013-08-11 11:36:00,68.0,46.0,-100.00,South,180,9.0,13.0,44,-99.99,,,-99.99,,2013-08-11 18:36:00,
2013-08-11 11:45:00,69.0,45.0,-100.00,SW,225,9.0,16.0,43,-99.99,,,-99.99,,2013-08-11 18:45:00,
2013-08-11 11:55:00,69.0,45.0,-100.00,SW,225,9.0,16.0,43,-99.99,,,-99.99,,2013-08-11 18:55:00,
2013-08-11 12:04:00,70.0,45.0,-100.00,South,180,9.0,16.0,41,-99.99,,,-99.99,,2013-08-11 19:04:00,
2013-08-11 12:12:00,71.0,46.0,-100.00,SW,225,5.0,16.0,41,-99.99,,,-99.99,,2013-08-11 19:12:00,
2013-08-11 12:23:00,71.0,46.0,-100.00,SW,225,5.0,16.0,41,-99.99,,,-99.99,,2013-08-11 19:23:00,
2013-08-11 12:32:00,72.0,46.0,-100.00,South,180,8.0,13.0,40,-99.99,,,-99.99,,2013-08-11 19:32:00,
2013-08-11 12:46:00,72.0,46.0,-100.00,SW,225,11.0,19.0,39,-99.99,,,-99.99,,2013-08-11 19:46:00,
2013-08-11 12:58:00,72.0,46.0,-100.00,SW,225,11.0,19.0,39,-99.99,,,-99.99,,2013-08-11 19:58:00,
2013-08-11 13:23:00,74.0,47.0,-100.00,SW,225,7.0,12.0,37,-99.99,,,-99.99,,2013-08-11 20:23:00,
2013-08-11 13:33:00,73.0,45.0,-100.00,SW,225,14.0,20.0,36,-99.99,,,-99.99,,2013-08-11 20:33:00,
2013-08-11 13:45:00,74.0,46.0,-100.00,SW,225,12.0,18.0,36,-99.99,,,-99.99,,2013-08-11 20:45:00,
2013-08-11 14:02:00,76.0,46.0,-100.00,SW,225,13.0,19.0,35,-99.99,,,-99.99,,2013-08-11 21:02:00,
2013-08-11 14:11:00,76.0,46.0,-100.00,SW,225,13.0,19.0,35,-99.99,,,-99.99,,2013-08-11 21:11:00,
2013-08-11 14:23:00,77.0,46.0,-100.00,West,270,12.0,20.0,34,-99.99,,,-99.99,,2013-08-11 21:23:00,
2013-08-11 14:33:00,77.0,46.0,-100.00,West,270,12.0,20.0,34,-99.99,,,-99.99,,2013-08-11 21:33:00,
2013-08-11 14:56:00,79.0,46.0,-100.00,South,180,6.0,16.0,32,-99.99,,,-99.99,,2013-08-11 21:56:00,
2013-08-11 15:03:00,79.0,46.0,-100.00,SW,225,6.0,14.0,32,-99.99,,,-99.99,,2013-08-11 22:03:00,
2013-08-11 15:13:00,79.0,45.0,-100.00,SW,225,10.0,19.0,31,-99.99,,,-99.99,,2013-08-11 22:13:00,
2013-08-11 15:23:00,79.0,45.0,-100.00,SW,225,10.0,19.0,31,-99.99,,,-99.99,,2013-08-11 22:23:00,
2013-08-11 15:33:00,80.0,47.0,-100.00,West,270,9.0,17.0,31,-99.99,,,-99.99,,2013-08-11 22:33:00,
2013-08-11 15:56:00,79.0,46.0,-100.00,West,270,6.0,9.0,31,-99.99,,,-99.99,,2013-08-11 22:56:00,
2013-08-11 16:24:00,77.0,46.0,-100.00,North,0,6.0,16.0,34,-99.99,,,-99.99,,2013-08-11 23:24:00,
2013-08-11 16:32:00,76.0,46.0,-100.00,NW,315,12.0,17.0,35,-99.99,,,-99.99,,2013-08-11 23:32:00,
2013-08-11 16:44:00,76.0,46.0,-100.00,North,0,9.0,16.0,35,-99.99,,,-99.99,,2013-08-11 23:44:00,
2013-08-11 17:03:00,75.0,46.0,-100.00,North,0,11.0,15.0,35,-99.99,,,-99.99,,2013-08-12 00:03:00,
2013-08-11 17:13:00,75.0,46.0,-100.00,North,0,11.0,15.0,35,-99.99,,,-99.99,,2013-08-12 00:13:00,
2013-08-11 17:22:00,75.0,46.0,-100.00,NW,315,6.0,12.0,36,-99.99,,,-99.99,,2013-08-12 00:22:00,
2013-08-11 17:34:00,74.0,46.0,-100.00,NW,315,10.0,15.0,37,-99.99,,,-99.99,,2013-08-12 00:34:00,
2013-08-11 17:56:00,74.0,47.0,-100.00,North,0,9.0,17.0,38,-99.99,,,-99.99,,2013-08-12 00:56:00,
2013-08-11 18:03:00,73.0,46.0,-100.00,North,0,8.0,15.0,38,-99.99,,,-99.99,,2013-08-12 01:03:00,
2013-08-11 18:13:00,73.0,46.0,-100.00,NW,315,8.0,15.0,38,-99.99,,,-99.99,,2013-08-12 01:13:00,
2013-08-11 18:23:00,73.0,46.0,-100.00,NW,315,8.0,15.0,38,-99.99,,,-99.99,,2013-08-12 01:23:00,
2013-08-11 18:34:00,73.0,47.0,-100.00,NW,315,8.0,16.0,39,-99.99,,,-99.99,,2013-08-12 01:34:00,
2013-08-11 18:43:00,73.0,46.0,-100.00,NW,315,8.0,13.0,39,-99.99,,,-99.99,,2013-08-12 01:43:00,
2013-08-11 19:04:00,72.0,46.0,-100.00,NW,315,9.0,14.0,39,-99.99,,,-99.99,,2013-08-12 02:04:00,
2013-08-11 19:23:00,72.0,46.0,-100.00,NW,315,8.0,14.0,40,-99.99,,,-99.99,,2013-08-12 02:23:00,
2013-08-11 20:03:00,71.0,47.0,-100.00,NW,315,9.0,14.0,42,-99.99,,,-99.99,,2013-08-12 03:03:00,
2013-08-11 20:34:00,69.0,47.0,-100.00,NW,315,6.0,-999.0,44,-99.99,,,-99.99,,2013-08-12 03:34:00,
2013-08-11 20:44:00,69.0,47.0,-100.00,NW,315,5.0,8.0,46,-99.99,,,-99.99,,2013-08-12 03:44:00,
2013-08-11 21:02:00,68.0,47.0,-100.00,NW,315,4.0,7.0,47,-99.99,,,-99.99,,2013-08-12 04:02:00,
2013-08-11 21:12:00,68.0,48.0,-100.00,NW,315,4.0,8.0,49,-99.99,,,-99.99,,2013-08-12 04:12:00,
2013-08-11 21:22:00,68.0,48.0,-100.00,NW,315,4.0,8.0,49,-99.99,,,-99.99,,2013-08-12 04:22:00,
2013-08-11 21:32:00,67.0,47.0,-100.00,North,0,3.0,6.0,50,-99.99,,,-99.99,,2013-08-12 04:32:00,
2013-08-11 21:43:00,66.0,48.0,-100.00,NW,315,2.0,6.0,52,-99.99,,,-99.99,,2013-08-12 04:43:00,
2013-08-11 21:52:00,66.0,48.0,-100.00,NW,315,2.0,6.0,52,-99.99,,,-99.99,,2013-08-12 04:52:00,
2013-08-11 22:02:00,65.0,48.0,-100.00,North,0,4.0,6.0,54,-99.99,,,-99.99,,2013-08-12 05:02:00,
2013-08-11 22:11:00,65.0,49.0,-100.00,NE,45,3.0,6.0,57,-99.99,,,-99.99,,2013-08-12 05:11:00,
2013-08-11 22:22:00,65.0,49.0,-100.00,NE,45,3.0,6.0,57,-99.99,,,-99.99,,2013-08-12 05:22:00,
2013-08-11 22:32:00,64.0,50.0,-100.00,NW,315,3.0,6.0,59,-99.99,,,-99.99,,2013-08-12 05:32:00,
2013-08-11 22:43:00,63.0,50.0,-100.00,North,0,3.0,5.0,61,-99.99,,,-99.99,,2013-08-12 05:43:00,
2013-08-11 22:52:00,63.0,50.0,-100.00,North,0,3.0,5.0,61,-99.99,,,-99.99,,2013-08-12 05:52:00,
2013-08-11 23:01:00,63.0,50.0,-100.00,North,0,4.0,5.0,63,-99.99,,,-99.99,,2013-08-12 06:01:00,
2013-08-11 23:22:00,63.0,50.0,-100.00,North,0,1.0,4.0,64,-99.99,,,-99.99,,2013-08-12 06:22:00,
2013-08-11 23:32:00,62.0,51.0,-100.00,North,0,3.0,4.0,66,-99.99,,,-99.99,,2013-08-12 06:32:00,
2013-08-11 23:42:00,62.0,51.0,-100.00,NW,315,3.0,4.0,67,-99.99,,,-99.99,,2013-08-12 06:42:00,